TimeEDT,TemperatureF,Dew PointF,Humidity,Sea Level PressureIn,VisibilityMPH,Wind Direction,Wind SpeedMPH,Gust SpeedMPH,PrecipitationIn,Events,Conditions,WindDirDegrees,DateUTC
12:15 AM,51.8,51.8,100,30.20,0.5,Calm,Calm,-,N/A,Fog,Fog,0,2011-10-11 04:15:00
12:28 AM,51.8,51.8,100,30.20,1.2,Calm,Calm,-,N/A,,Partly Cloudy,0,2011-10-11 04:28:00
12:36 AM,53.6,51.8,94,30.20,2.5,Calm,Calm,-,N/A,,Partly Cloudy,0,2011-10-11 04:36:00
12:42 AM,51.8,51.8,100,30.19,1.0,Calm,Calm,-,N/A,,Mist,0,2011-10-11 04:42:00
12:49 AM,53.6,51.8,94,30.19,0.5,Calm,Calm,-,N/A,Fog,Fog,0,2011-10-11 04:49:00
12:53 AM,53.1,52.0,96,30.19,0.5,Calm,Calm,-,N/A,Fog,Fog,0,2011-10-11 04:53:00
1:06 AM,53.6,51.8,94,30.19,0.5,Calm,Calm,-,N/A,Fog,Fog,0,2011-10-11 05:06:00
1:17 AM,53.6,51.8,94,30.19,0.2,Calm,Calm,-,N/A,Fog,Fog,0,2011-10-11 05:17:00
1:53 AM,55.0,53.1,93,30.19,0.2,Calm,Calm,-,N/A,Fog,Fog,0,2011-10-11 05:53:00
2:53 AM,55.9,54.0,93,30.17,0.2,Calm,Calm,-,N/A,Fog,Fog,0,2011-10-11 06:53:00
3:53 AM,53.1,52.0,96,30.16,0.2,Calm,Calm,-,N/A,Fog,Fog,0,2011-10-11 07:53:00
4:53 AM,53.1,52.0,96,30.16,0.2,Calm,Calm,-,N/A,Fog,Fog,0,2011-10-11 08:53:00
5:03 AM,53.6,51.8,94,30.17,0.5,Calm,Calm,-,N/A,Fog,Fog,0,2011-10-11 09:03:00
5:27 AM,53.6,51.8,94,30.17,1.5,Calm,Calm,-,N/A,,Overcast,0,2011-10-11 09:27:00
5:53 AM,54.0,52.0,93,30.17,0.2,Calm,Calm,-,N/A,Fog,Fog,0,2011-10-11 09:53:00
6:00 AM,53.6,53.6,100,30.17,0.2,Calm,Calm,-,N/A,Fog,Fog,0,2011-10-11 10:00:00
6:24 AM,53.6,51.8,94,30.18,0.2,SE,3.5,-,N/A,Fog,Fog,140,2011-10-11 10:24:00
6:38 AM,53.6,51.8,94,30.18,0.5,Calm,Calm,-,N/A,Fog,Fog,0,2011-10-11 10:38:00
6:53 AM,53.1,52.0,96,30.18,0.5,Calm,Calm,-,N/A,Fog,Fog,0,2011-10-11 10:53:00
7:53 AM,53.1,52.0,96,30.19,0.5,Calm,Calm,-,N/A,Fog,Fog,0,2011-10-11 11:53:00
8:12 AM,53.6,51.8,94,30.19,1.2,Calm,Calm,-,N/A,,Overcast,0,2011-10-11 12:12:00
8:40 AM,53.6,53.6,100,30.20,2.0,Calm,Calm,-,N/A,,Scattered Clouds,0,2011-10-11 12:40:00
8:53 AM,55.0,53.1,93,30.19,2.5,Calm,Calm,-,N/A,,Partly Cloudy,0,2011-10-11 12:53:00
9:09 AM,55.4,53.6,94,30.19,3.0,Calm,Calm,-,N/A,,Partly Cloudy,0,2011-10-11 13:09:00
9:51 AM,57.2,55.4,94,30.19,5.0,Calm,Calm,-,N/A,,Mostly Cloudy,0,2011-10-11 13:51:00
9:53 AM,57.2,55.4,94,30.19,5.0,Calm,Calm,-,N/A,,Mostly Cloudy,0,2011-10-11 13:53:00
10:12 AM,59.0,55.4,88,30.19,6.0,Calm,Calm,-,N/A,,Scattered Clouds,0,2011-10-11 14:12:00
10:53 AM,61.0,57.0,87,30.18,9.0,Calm,Calm,-,N/A,,Clear,0,2011-10-11 14:53:00
11:53 AM,63.0,55.9,78,30.17,10.0,Calm,Calm,-,N/A,,Clear,0,2011-10-11 15:53:00
12:53 PM,64.9,57.9,78,30.16,10.0,Calm,Calm,-,N/A,,Clear,0,2011-10-11 16:53:00
1:53 PM,66.0,57.9,75,30.15,10.0,NE,3.5,-,N/A,,Clear,50,2011-10-11 17:53:00
2:53 PM,69.1,57.9,68,30.13,10.0,Calm,Calm,-,N/A,,Clear,0,2011-10-11 18:53:00
3:53 PM,68.0,59.0,73,30.12,10.0,Calm,Calm,-,N/A,,Mostly Cloudy,0,2011-10-11 19:53:00
4:53 PM,68.0,57.9,70,30.11,10.0,Calm,Calm,-,N/A,,Overcast,0,2011-10-11 20:53:00
5:53 PM,66.2,60.8,83,30.10,10.0,Calm,Calm,-,N/A,,Overcast,0,2011-10-11 21:53:00
6:53 PM,66.9,60.1,79,30.08,9.0,Calm,Calm,-,N/A,,Overcast,0,2011-10-11 22:53:00
7:53 PM,66.0,60.1,81,30.09,7.0,Calm,Calm,-,N/A,,Overcast,0,2011-10-11 23:53:00
8:53 PM,64.9,60.1,84,30.08,7.0,Calm,Calm,-,N/A,,Overcast,0,2011-10-12 00:53:00
9:53 PM,64.0,60.1,87,30.09,6.0,Calm,Calm,-,N/A,,Overcast,0,2011-10-12 01:53:00
10:53 PM,63.0,60.1,90,30.09,4.0,Calm,Calm,-,0.01,Rain,Light Rain,0,2011-10-12 02:53:00
11:53 PM,63.0,60.1,90,30.09,3.0,Calm,Calm,-,0.00,,Overcast,0,2011-10-12 03:53:00